When you browse on this site, cookies collect data to enhance your experience and personalize the content and advertising you see.
Visit our Privacy Policy to learn more. By continuing to use the site, you agree to this use of cookies and data.
  • In Romania
  • List of Countries
  • For 7 days
  • Water Temperature
  • Satellite Maps
  • Weather Map
  • Weather Widgets
  • user-avatar
    Login

    Hourly Weather San Luis

    Today, 27 June, Thursday

    Time Temperature Precipitation Wind Pressure Humidity
    00:00 +6°C° 0 mm 7 mps 692 mmHg 30%
    01:00 +6°C° 0 mm 7 mps 691 mmHg 31%
    02:00 +7°C° 0 mm 6 mps 691 mmHg 32%
    03:00 +7°C° 0 mm 6 mps 691 mmHg 34%
    04:00 +5°C° 0 mm 6 mps 690 mmHg 35%
    05:00 +5°C° 0 mm 6 mps 690 mmHg 37%
    06:00 +6°C° 0 mm 5 mps 690 mmHg 39%
    07:00 +6°C° 0 mm 4 mps 691 mmHg 41%
    08:00 +6°C° 0 mm 4 mps 691 mmHg 42%
    09:00 +8°C° 0 mm 4 mps 691 mmHg 39%
    10:00 +11°C° 0 mm 4 mps 692 mmHg 35%
    11:00 +13°C° 0 mm 4 mps 692 mmHg 32%
    12:00 +14°C° 0 mm 4 mps 692 mmHg 31%
    13:00 +15°C° 0 mm 4 mps 691 mmHg 31%
    14:00 +15°C° 0 mm 4 mps 691 mmHg 31%
    15:00 +14°C° 0 mm 3 mps 691 mmHg 35%
    16:00 +14°C° 0 mm 2 mps 690 mmHg 38%
    17:00 +13°C° 0 mm 2 mps 690 mmHg 42%
    18:00 +12°C° 0 mm 2 mps 690 mmHg 43%
    19:00 +10°C° 0 mm 2 mps 690 mmHg 45%
    20:00 +9°C° 0 mm 2 mps 690 mmHg 47%
    21:00 +8°C° 0 mm 2 mps 690 mmHg 48%
    22:00 +8°C° 0 mm 2 mps 690 mmHg 49%
    23:00 +8°C° 0 mm 2 mps 690 mmHg 51%

    Tomorrow, 28 June, Friday

    Time Temperature Precipitation Wind Pressure Humidity
    00:00 +7°C° 0 mm 2 mps 690 mmHg 54%
    01:00 +7°C° 0 mm 2 mps 690 mmHg 56%
    02:00 +8°C° 0 mm 1 mps 690 mmHg 59%
    03:00 +7°C° 0 mm 1 mps 690 mmHg 62%
    04:00 +7°C° 0 mm 1 mps 690 mmHg 64%
    05:00 +7°C° 0 mm 1 mps 690 mmHg 67%
    06:00 +7°C° 0 mm 1 mps 690 mmHg 65%
    07:00 +7°C° 0 mm 1 mps 691 mmHg 64%
    08:00 +6°C° 0 mm 2 mps 692 mmHg 62%
    09:00 +9°C° 0 mm 2 mps 692 mmHg 56%
    10:00 +12°C° 0 mm 2 mps 693 mmHg 50%
    11:00 +14°C° 0 mm 2 mps 694 mmHg 44%
    12:00 +15°C° 0 mm 2 mps 694 mmHg 42%
    13:00 +14°C° 0 mm 3 mps 694 mmHg 41%
    14:00 +15°C° 0 mm 4 mps 694 mmHg 39%
    15:00 +14°C° 0 mm 4 mps 694 mmHg 40%
    16:00 +14°C° 0 mm 4 mps 694 mmHg 41%
    17:00 +13°C° 0 mm 3 mps 694 mmHg 43%
    18:00 +11°C° 0 mm 4 mps 694 mmHg 47%
    19:00 +10°C° 0 mm 4 mps 694 mmHg 50%
    20:00 +8°C° 0 mm 4 mps 695 mmHg 54%
    21:00 +7°C° 0 mm 4 mps 695 mmHg 60%
    22:00 +7°C° 0 mm 4 mps 695 mmHg 65%
    23:00 +6°C° 0 mm 4 mps 695 mmHg 71%

    Day after tomorrow, 29 June, Saturday

    Time Temperature Precipitation Wind Pressure Humidity
    00:00 +6°C° 0 mm 4 mps 695 mmHg 74%
    01:00 +5°C° 0 mm 3 mps 695 mmHg 78%
    02:00 +5°C° 0 mm 3 mps 695 mmHg 81%
    03:00 +5°C° 0 mm 3 mps 695 mmHg 84%
    04:00 +4°C° 0 mm 3 mps 694 mmHg 86%
    05:00 +4°C° 0 mm 3 mps 694 mmHg 89%
    06:00 +4°C° 0 mm 3 mps 695 mmHg 90%
    07:00 +4°C° 0 mm 3 mps 695 mmHg 90%
    08:00 +4°C° 0 mm 3 mps 695 mmHg 91%
    09:00 +5°C° 0 mm 3 mps 696 mmHg 83%
    10:00 +8°C° 0 mm 2 mps 697 mmHg 74%
    11:00 +10°C° 0 mm 2 mps 697 mmHg 66%
    12:00 +10°C° 0 mm 3 mps 697 mmHg 65%
    13:00 +10°C° 0 mm 3 mps 697 mmHg 64%
    14:00 +11°C° 0 mm 4 mps 697 mmHg 62%
    15:00 +10°C° 0 mm 4 mps 697 mmHg 64%
    16:00 +10°C° 0 mm 3 mps 697 mmHg 66%
    17:00 +9°C° 0 mm 3 mps 697 mmHg 68%
    18:00 +8°C° 0 mm 3 mps 697 mmHg 73%
    19:00 +7°C° 0 mm 3 mps 698 mmHg 78%
    20:00 +5°C° 0 mm 4 mps 698 mmHg 83%
    21:00 +5°C° 0 mm 4 mps 699 mmHg 85%
    22:00 +4°C° 0 mm 4 mps 699 mmHg 86%
    23:00 +4°C° 0 mm 3 mps 700 mmHg 88%

    30 June, Sunday

    Time Temperature Precipitation Wind Pressure Humidity
    00:00 +4°C° 0 mm 3 mps 700 mmHg 87%
    01:00 +3°C° 0 mm 3 mps 700 mmHg 86%
    02:00 +3°C° 0 mm 3 mps 700 mmHg 85%
    03:00 +3°C° 0 mm 3 mps 700 mmHg 83%
    04:00 +3°C° 0 mm 3 mps 700 mmHg 82%
    05:00 +3°C° 0 mm 4 mps 700 mmHg 81%
    06:00 +3°C° 0 mm 4 mps 701 mmHg 80%
    07:00 +3°C° 0 mm 4 mps 701 mmHg 79%
    08:00 +3°C° 0 mm 4 mps 702 mmHg 78%
    09:00 +5°C° 0 mm 4 mps 702 mmHg 66%
    10:00 +7°C° 0 mm 5 mps 703 mmHg 54%
    11:00 +9°C° 0 mm 5 mps 704 mmHg 42%
    12:00 +10°C° 0 mm 6 mps 704 mmHg 40%
    13:00 +10°C° 0 mm 6 mps 703 mmHg 38%
    14:00 +11°C° 0 mm 7 mps 703 mmHg 36%
    15:00 +10°C° 0 mm 7 mps 703 mmHg 38%
    16:00 +9°C° 0 mm 7 mps 703 mmHg 40%
    17:00 +9°C° 0 mm 7 mps 703 mmHg 43%
    18:00 +8°C° 0 mm 6 mps 703 mmHg 48%
    19:00 +7°C° 0 mm 6 mps 704 mmHg 53%
    20:00 +4°C° 0 mm 6 mps 704 mmHg 57%
    21:00 +4°C° 0 mm 6 mps 705 mmHg 60%
    22:00 +4°C° 0 mm 6 mps 705 mmHg 62%
    23:00 +3°C° 0 mm 6 mps 706 mmHg 65%

    1 July, Monday

    Time Temperature Precipitation Wind Pressure Humidity
    00:00 +3°C° 0 mm 5 mps 706 mmHg 64%
    01:00 +3°C° 0 mm 5 mps 706 mmHg 64%
    02:00 +4°C° 0 mm 4 mps 706 mmHg 64%
    03:00 +4°C° 0 mm 4 mps 706 mmHg 65%
    04:00 +3°C° 0 mm 3 mps 705 mmHg 66%
    05:00 +3°C° 0 mm 3 mps 705 mmHg 68%
    06:00 +3°C° 0 mm 3 mps 705 mmHg 68%
    07:00 +4°C° 0 mm 2 mps 706 mmHg 69%
    08:00 +4°C° 0 mm 2 mps 706 mmHg 70%
    09:00 +6°C° 0 mm 2 mps 706 mmHg 63%
    10:00 +8°C° 0 mm 3 mps 706 mmHg 57%
    11:00 +10°C° 0 mm 3 mps 706 mmHg 50%
    12:00 +10°C° 0 mm 5 mps 705 mmHg 47%
    13:00 +10°C° 0 mm 6 mps 704 mmHg 44%
    14:00 +11°C° 0 mm 7 mps 704 mmHg 41%
    15:00 +10°C° 0 mm 6 mps 703 mmHg 43%
    16:00 +10°C° 0 mm 5 mps 702 mmHg 46%
    17:00 +9°C° 0 mm 5 mps 702 mmHg 48%
    18:00 +8°C° 0 mm 5 mps 701 mmHg 52%
    19:00 +7°C° 0 mm 5 mps 701 mmHg 56%
    20:00 +6°C° 0 mm 5 mps 701 mmHg 60%
    21:00 +6°C° 0 mm 5 mps 700 mmHg 63%
    22:00 +6°C° 0 mm 5 mps 700 mmHg 65%
    23:00 +5°C° 0 mm 6 mps 700 mmHg 68%

    2 July, Tuesday

    Time Temperature Precipitation Wind Pressure Humidity
    00:00 +4°C° 0 mm 6 mps 700 mmHg 68%
    01:00 +4°C° 0 mm 6 mps 699 mmHg 68%
    02:00 +4°C° 0 mm 6 mps 699 mmHg 68%
    03:00 +4°C° 0 mm 6 mps 698 mmHg 67%
    04:00 +4°C° 0 mm 6 mps 698 mmHg 66%
    05:00 +5°C° 0 mm 5 mps 697 mmHg 65%
    06:00 +3°C° 0 mm 5 mps 697 mmHg 66%
    07:00 +3°C° 0 mm 5 mps 697 mmHg 66%
    08:00 +3°C° 0 mm 5 mps 697 mmHg 67%
    09:00 +6°C° 0 mm 5 mps 697 mmHg 60%
    10:00 +9°C° 0 mm 5 mps 697 mmHg 53%
    11:00 +11°C° 0 mm 6 mps 698 mmHg 46%
    12:00 +13°C° 0 mm 5 mps 697 mmHg 43%
    13:00 +14°C° 0 mm 4 mps 696 mmHg 40%
    14:00 +15°C° 0 mm 4 mps 696 mmHg 37%
    15:00 +14°C° 0 mm 3 mps 695 mmHg 41%
    16:00 +14°C° 0 mm 2 mps 695 mmHg 44%
    17:00 +13°C° 0 mm 2 mps 694 mmHg 47%
    18:00 +12°C° 0 mm 1 mps 694 mmHg 52%
    19:00 +10°C° 0 mm 1 mps 694 mmHg 57%
    20:00 +9°C° 0 mm 1 mps 694 mmHg 62%
    21:00 +8°C° 0 mm 1 mps 694 mmHg 63%
    22:00 +8°C° 0 mm 1 mps 694 mmHg 65%
    23:00 +7°C° 0 mm 1 mps 694 mmHg 66%
    Show more